This is the latest recevied weather packets stored in our database for station/object K1LVA. If no packets are shown the sender has not sent any weather packets the latest 10 day(s).
| Time | Temp. | Humidity | Pressure | Rain* | Wind** | Luminosity | Snow |
|---|---|---|---|---|---|---|---|
| 1778289221 | 17.22° C | 84% | 1015 hPa | 0 mm | - | 0 W/m² | - |
| 1778288919 | 17.22° C | 85% | 1015.1 hPa | 0 mm | - | 0 W/m² | - |
| 1778288616 | 17.22° C | 84% | 1015 hPa | 0 mm | - | 0 W/m² | - |
| 1778288307 | 17.22° C | 84% | 1014.9 hPa | 0 mm | - | 0 W/m² | - |
| 1778288005 | 17.78° C | 83% | 1014.6 hPa | 0 mm | - | 0 W/m² | - |
| 1778287700 | 17.78° C | 82% | 1014.8 hPa | 0 mm | - | 0 W/m² | - |
| 1778287396 | 17.78° C | 84% | 1014.7 hPa | 0 mm | - | 0 W/m² | - |
| 1778287094 | 17.78° C | 82% | 1014.8 hPa | 0 mm | - | 0 W/m² | - |
| 1778286792 | 17.78° C | 81% | 1015 hPa | 0 mm | - | 0 W/m² | - |
| 1778286484 | 17.78° C | 81% | 1014.8 hPa | 0 mm | - | 0 W/m² | - |
| 1778286181 | 17.78° C | 80% | 1014.9 hPa | 0 mm | - | 0 W/m² | - |
| 1778285878 | 18.33° C | 81% | 1014.5 hPa | 0 mm | - | 0 W/m² | - |
| 1778285574 | 18.33° C | 80% | 1014.4 hPa | 0 mm | - | 0 W/m² | - |
| 1778285272 | 18.33° C | 79% | 1014.2 hPa | 0 mm | - | 1 W/m² | - |
| 1778284969 | 18.89° C | 78% | 1014.4 hPa | 0 mm | - | 3 W/m² | - |
| 1778284666 | 18.89° C | 78% | 1014.3 hPa | 0 mm | - | 6 W/m² | - |
| 1778284362 | 18.89° C | 76% | 1014.5 hPa | 0 mm | - | 7 W/m² | - |
| 1778284060 | 19.44° C | 75% | 1014.1 hPa | 0 mm | - | 9 W/m² | - |
| 1778283755 | 19.44° C | 75% | 1014.5 hPa | 0 mm | - | 10 W/m² | - |
| 1778283455 | 19.44° C | 73% | 1014.6 hPa | 0 mm | - | 16 W/m² | - |
| 1778283153 | 20° C | 72% | 1014.4 hPa | 0 mm | - | 22 W/m² | - |
| 1778282850 | 20° C | 72% | 1014.3 hPa | 0 mm | - | 23 W/m² | - |
| 1778282546 | 20° C | 72% | 1014.5 hPa | 0 mm | - | 31 W/m² | - |
| 1778282244 | 20.56° C | 69% | 1014.3 hPa | 0 mm | - | 35 W/m² | - |
| 1778281940 | 20.56° C | 67% | 1014 hPa | 0 mm | - | 38 W/m² | - |
* Rain latest hour (hover to see other rain measurements)
** Current wind speed in m/s (hover to see current wind gust speed)